User: anonymous   Login
Location: Baix
(44.7118°N, 4.7648°E)
Time: 07:54:32
(UTC+00:00)
Language:

MSX - Orbit

View from above orbital plane
View from above orbital plane
View from above satellite
View from above satellite

Ground track
Ground track

The orbit data is extracted from the following two-line orbital elements,

1 23851U 96024A   20299.90340219 +.00000194 +00000-0 +16592-3 0  9990
2 23851 098.7975 259.8000 0007786 155.8413 204.3117 13.98093078250435
Epoch (UTC): 25 October 2020 21:40:53
Eccentricity: 0.0007786
inclination: 98.7975°
perigee height: 895 km
apogee height: 906 km
right ascension of ascending node: 259.8000°
argument of perigee: 155.8413°
revolutions per day: 13.98093078
mean anomaly at epoch: 204.3117°
orbit number at epoch: 25043

The dashed part of the orbit path shows where the satellite is in the earth's shadow,  

DLR